sat.trackr.live / text

‹ back to catalog

STARLINK-37442

NORAD 68811 · 2026-089K

PAYLOAD ACTIVE UNKNOWN

§ Identity

Operator
Country
US
Launch date
2026-04-23
Launch site
AFWTR
Launch vehicle
Mass (kg)
RCS (m²)

Purposes: comms

External: N2YO · Heavens-Above · Gunter

§ Orbital elements

Epoch: 2026-09-19T19:40:43.655808Z

Period
93.91 min
Inclination
97.2861°
Eccentricity
0.0002036
Mean motion
15.33448348 rev/d
Perigee alt
464.1 km
Apogee alt
466.9 km
Semi-major
6,843.7 km
B*
4.5969e-4
RAAN
108.5756°
Arg perigee
90.9983°
Mean anomaly
269.1493°
Rev number
2,315

§ Raw data

STARLINK-374421 68811U 26089K   26262.81994972  .00014797  00000+0  45969-3 0  99992 68811  97.2861 108.5756 0002036  90.9983 269.1493 15.33448348 23158

JSON: /api/v1/satellites/68811 · /tle

For live sub-satellite position, see the globe view (requires WebGL).

§ Visibility from observer

Set your observer location to see the next 7 days of passes ≥ 10°. The values pass through the URL so the page stays shareable.

No JS? Fill the form by hand. The geolocation button needs JavaScript.